Location: Gombori
(14.9797°N, 2.9419°W)
Time: 22:40:18
(UTC+00:00)

Meteor 2-13 Rocket - Pass Details

Date: 02 December 2021
Orbit: 936 x 957 km, 82.5° (Epoch: 24 January)

Event Time Altitude Azimuth Distance (km) Brightness Sun altitude
Rises 04:12:39 0° 161° (SSE) 3,622 7.9 -30.3°
Reaches altitude 10° 04:15:26 10° 151° (SSE) 2,675 7.3 -29.7°
Maximum altitude 04:20:44 31° 91° (E) 1,593 6.1 -28.5°
Drops below altitude 10° 04:26:00 10° 31° (NNE) 2,667 6.9 -27.3°
Sets 04:28:45 0° 21° (NNE) 3,609 7.5 -26.6°
